Vorticity
4 5 7 6 7 7 5 6 10 7 9 6 16 8 1 15 4 4 8 8 8 9 11 6 6 8 11 8 9 8 7 -0 5 8 4 7 7 7 7 5 6 5 4 3 6
5 4 3 3 5 6 7 7 5 5 6 6 5 12 10 7 9 8 7 6 4 8 8 9 12 8 7 8 9 12 13 3 5 5 8 7 4 5 8 7 6 4 5 3 5
3 3 6 5 2 0 1 2 5 3 4 5 4 4 6 10 6 7 6 7 9 10 9 3 3 5 9 7 10 7 11 15 9 6 5 6 8 3 6 8 7 7 6 4 4
1 1 3 3 3 3 5 3 4 8 5 3 -1 1 2 10 8 5 4 9 12 12 13 12 13 9 3 4 6 9 10 10 14 12 5 10 6 7 2 6 9 4 4 5 7
7 7 6 6 6 6 5 4 6 6 6 6 4 5 9 -0 6 10 11 8 6 10 10 9 9 9 9 12 8 6 9 10 11 11 8 14 9 11 4 7 13 5 5 3 4
-0 3 6 8 9 15 20 23 21 13 13 10 7 6 9 11 7 7 10 14 8 6 11 10 8 10 7 9 8 8 4 7 9 11 10 6 9 11 11 10 9 13 5 8 8
6 2 6 27 38 35 30 31 31 31 33 28 26 20 14 20 12 9 4 11 12 7 7 11 9 7 6 8 11 11 11 9 8 8 10 14 10 11 9 13 12 14 13 10 9
9 5 39 27 17 13 11 9 14 18 15 17 22 16 28 19 10 8 4 9 11 8 8 11 9 8 10 11 11 11 6 9 11 9 7 9 13 10 11 11 12 10 12 8 10
5 37 18 17 13 10 6 7 1 4 12 11 11 13 18 16 14 11 14 3 11 18 9 8 10 5 8 8 10 6 11 13 8 9 8 8 8 12 7 6 9 10 9 10 9
32 19 15 10 7 8 3 6 9 6 9 5 14 10 13 15 11 12 10 10 17 15 14 9 8 9 8 8 7 10 7 6 9 11 10 9 9 7 8 7 3 2 6 7 7
22 17 11 5 10 5 8 28 42 33 33 16 5 9 14 14 13 11 11 12 14 12 14 14 12 10 10 9 11 10 7 13 12 9 11 12 10 11 5 3 6 5 7 7 8
16 13 7 9 4 10 26 36 25 31 37 44 29 14 7 11 15 13 10 11 14 13 13 12 10 14 12 12 7 10 10 9 10 9 11 11 10 7 7 10 8 8 13 11 9
10 10 8 6 3 24 19 17 7 10 19 37 31 23 15 13 11 11 10 8 8 8 14 11 10 9 9 12 14 9 12 12 10 8 11 16 12 10 9 7 8 9 8 10 10
9 9 7 10 10 20 11 17 12 12 11 17 33 36 32 22 13 9 15 7 5 9 15 12 10 8 6 7 10 10 12 12 10 9 10 11 16 13 11 9 8 9 9 10 11
7 8 8 9 10 29 12 6 20 11 11 15 15 14 26 30 27 29 20 11 5 3 9 12 9 11 7 9 11 13 14 12 11 9 9 11 11 9 9 10 10 12 8 7 7
7 4 7 8 16 20 10 15 19 27 36 21 -2 -2 15 28 19 29 29 17 9 4 10 8 7 14 12 10 9 9 11 12 11 10 11 11 12 12 12 11 6 8 8 9 10
6 9 8 11 25 17 14 18 47 43 35 23 17 8 21 15 9 21 26 16 11 2 5 10 10 8 5 7 9 11 13 11 10 11 13 11 11 13 9 7 6 6 11 13 11
8 7 10 22 26 15 12 43 11 7 -8 16 19 16 -5 26 19 4 24 23 11 7 14 15 7 6 7 8 9 10 8 7 9 11 11 10 11 10 9 6 9 9 12 14 18
7 7 14 21 21 12 27 29 -7 -9 18 -1 -10 26 -14 20 11 15 21 28 20 14 7 14 5 5 7 7 7 8 10 8 9 8 10 9 11 8 5 8 8 8 12 12 16
9 9 24 24 15 24 28 39 0 -4 14 16 14 20 5 17 15 3 27 18 20 16 6 11 7 6 7 6 7 8 6 7 8 8 7 6 7 9 9 4 9 18 17 11 11
7 11 21 20 14 36 12 12 9 -1 7 14 24 5 13 17 59 -8 59 12 9 13 7 15 7 7 6 7 7 6 6 7 7 7 9 9 9 8 5 8 13 16 13 9 9
7 14 20 19 15 38 -0 11 7 6 5 11 18 5 15 -32 2 -9 17 14 15 4 10 10 9 9 8 5 4 6 9 10 11 11 11 10 7 4 8 12 18 14 7 11 13
11 19 16 16 22 38 16 1 1 13 18 13 13 12 8 8 2 16 14 23 3 5 9 15 12 9 8 6 5 6 8 9 8 4 4 8 11 11 10 12 13 8 7 14 14
15 20 19 19 19 41 -9 13 5 11 7 6 14 7 17 9 -8 1 13 22 18 10 13 12 9 10 6 2 4 10 9 6 7 10 9 8 8 16 19 16 11 8 12 11 32
15 17 18 14 30 24 19 7 -2 3 1 10 9 10 6 16 13 10 12 22 1 13 16 12 13 8 6 3 7 7 5 8 8 9 8 6 18 18 12 12 12 12 15 26 1
17 23 20 12 30 18 13 3 12 7 7 4 19 11 15 9 11 7 14 16 9 17 13 15 9 6 5 5 4 9 10 8 10 10 10 15 28 10 13 12 12 5 29 1 5
18 19 18 16 27 25 6 7 6 10 17 13 17 18 6 18 8 14 13 14 20 19 13 5 3 3 4 7 11 10 11 7 5 17 24 28 10 13 7 11 9 40 -4 4 3
Height
5768 5764 5761 5756 5752 5748 5745 5741 5739 5736 5733 5730 5728 5726 5726 5727 5728 5728 5729 5731 5728 5728 5729 5729 5729 5730 5732 5735 5737 5739 5742 5746 5748 5749 5752 5753 5755 5757 5763 5762 5764 5769 5771 5773 5777
5761 5756 5752 5748 5744 5739 5735 5731 5728 5725 5723 5719 5717 5714 5714 5714 5716 5719 5718 5718 5719 5719 5719 5720 5720 5719 5721 5724 5727 5729 5734 5736 5735 5739 5742 5746 5747 5751 5753 5753 5754 5757 5761 5764 5768
5751 5746 5742 5738 5732 5728 5723 5719 5715 5712 5709 5707 5704 5703 5700 5701 5703 5705 5707 5706 5706 5707 5709 5709 5710 5710 5711 5712 5716 5719 5724 5723 5726 5729 5733 5736 5737 5739 5742 5745 5745 5749 5753 5755 5760
5742 5736 5730 5725 5720 5714 5708 5703 5699 5696 5694 5691 5689 5688 5687 5688 5692 5691 5692 5693 5694 5695 5696 5697 5698 5701 5701 5702 5703 5708 5711 5713 5715 5718 5723 5724 5728 5729 5732 5736 5733 5738 5743 5746 5749
5730 5723 5717 5709 5702 5696 5690 5685 5680 5676 5673 5672 5671 5670 5672 5675 5681 5677 5678 5679 5680 5683 5684 5685 5687 5688 5690 5691 5692 5697 5701 5702 5704 5707 5712 5713 5715 5719 5724 5724 5725 5728 5732 5736 5739
5715 5707 5699 5690 5681 5674 5667 5662 5658 5654 5650 5651 5650 5650 5654 5662 5659 5664 5664 5666 5668 5669 5671 5673 5675 5676 5679 5680 5680 5685 5689 5692 5693 5697 5699 5703 5705 5707 5716 5712 5715 5715 5723 5725 5729
5700 5689 5679 5666 5657 5650 5644 5640 5637 5633 5630 5628 5628 5628 5633 5652 5640 5649 5650 5652 5655 5656 5658 5661 5663 5664 5667 5668 5671 5674 5677 5680 5683 5685 5688 5691 5698 5700 5700 5705 5707 5709 5709 5714 5717
5683 5671 5658 5650 5642 5636 5631 5627 5624 5620 5615 5612 5611 5609 5614 5630 5626 5632 5635 5637 5641 5643 5646 5649 5649 5653 5656 5658 5660 5662 5665 5670 5673 5673 5678 5682 5691 5688 5691 5695 5697 5699 5700 5704 5706
5667 5655 5644 5638 5631 5625 5620 5616 5611 5607 5602 5599 5598 5596 5604 5613 5615 5612 5620 5622 5626 5630 5632 5635 5639 5642 5645 5647 5649 5652 5656 5657 5660 5664 5667 5672 5678 5680 5683 5684 5686 5689 5692 5694 5697
5651 5642 5633 5626 5619 5611 5605 5600 5595 5589 5587 5584 5584 5584 5594 5598 5599 5601 5604 5608 5612 5616 5619 5624 5627 5631 5636 5637 5641 5639 5644 5647 5649 5654 5658 5663 5667 5670 5672 5675 5677 5680 5683 5686 5688
5639 5630 5623 5615 5606 5596 5589 5580 5572 5566 5564 5566 5568 5572 5574 5581 5586 5587 5591 5594 5600 5605 5608 5611 5616 5623 5624 5626 5630 5631 5635 5639 5639 5644 5649 5654 5658 5658 5661 5666 5669 5671 5673 5676 5679
5627 5619 5612 5604 5593 5582 5569 5561 5551 5546 5548 5548 5551 5554 5560 5565 5570 5575 5580 5584 5589 5595 5595 5602 5609 5612 5614 5618 5621 5622 5625 5629 5629 5634 5638 5643 5648 5651 5650 5655 5659 5661 5662 5665 5668
5616 5608 5601 5594 5582 5570 5559 5554 5546 5541 5535 5540 5532 5539 5545 5548 5557 5563 5568 5573 5578 5583 5587 5593 5600 5601 5606 5609 5612 5615 5617 5619 5622 5625 5628 5633 5638 5641 5644 5645 5647 5650 5652 5654 5656
5605 5597 5590 5584 5574 5562 5553 5545 5540 5533 5530 5530 5527 5528 5532 5537 5544 5551 5557 5563 5569 5575 5578 5583 5589 5593 5597 5601 5603 5606 5609 5612 5614 5616 5619 5624 5628 5632 5633 5636 5639 5639 5641 5643 5645
5595 5587 5579 5567 5561 5552 5545 5538 5531 5527 5523 5524 5523 5524 5525 5529 5533 5538 5544 5551 5560 5565 5571 5577 5581 5586 5590 5593 5595 5599 5601 5603 5606 5608 5611 5615 5617 5625 5625 5627 5629 5629 5630 5631 5633
5586 5578 5570 5562 5549 5540 5535 5528 5523 5519 5515 5517 5517 5519 5521 5520 5524 5530 5532 5541 5551 5557 5562 5567 5574 5578 5583 5586 5589 5592 5594 5597 5599 5602 5604 5607 5608 5614 5618 5620 5620 5619 5620 5621 5622
5577 5568 5559 5550 5542 5532 5527 5520 5516 5512 5513 5514 5515 5517 5518 5519 5521 5524 5529 5536 5543 5551 5556 5562 5568 5572 5576 5580 5583 5586 5589 5591 5594 5595 5598 5600 5602 5606 5609 5610 5611 5610 5610 5611 5611
5568 5559 5550 5541 5533 5526 5520 5516 5513 5514 5513 5513 5513 5512 5516 5516 5518 5522 5524 5529 5536 5544 5550 5556 5561 5566 5570 5574 5578 5581 5583 5586 5586 5588 5591 5593 5595 5598 5599 5600 5602 5601 5600 5600 5601
5561 5551 5542 5532 5527 5520 5515 5512 5511 5511 5510 5511 5512 5512 5514 5514 5516 5520 5523 5526 5531 5539 5546 5550 5555 5560 5564 5568 5572 5575 5577 5579 5580 5581 5584 5586 5589 5590 5591 5591 5591 5590 5590 5590 5591
5556 5544 5536 5528 5521 5515 5511 5509 5510 5509 5510 5509 5510 5510 5511 5513 5515 5516 5520 5524 5530 5536 5543 5546 5551 5555 5559 5563 5567 5569 5572 5574 5575 5576 5577 5578 5580 5582 5583 5583 5582 5582 5582 5582 5583
5547 5537 5529 5522 5516 5511 5509 5508 5509 5508 5508 5508 5509 5509 5509 5511 5512 5514 5515 5521 5527 5533 5537 5542 5547 5552 5554 5558 5561 5565 5566 5568 5570 5571 5572 5573 5573 5575 5575 5575 5574 5573 5574 5574 5575
5539 5530 5523 5517 5512 5507 5507 5507 5507 5507 5507 5506 5507 5507 5508 5509 5510 5512 5513 5518 5524 5530 5534 5538 5543 5546 5551 5553 5556 5559 5561 5563 5563 5566 5565 5565 5569 5567 5567 5567 5567 5567 5567 5567 5567
5534 5525 5516 5512 5507 5504 5504 5505 5505 5505 5504 5504 5505 5505 5506 5508 5510 5511 5514 5517 5522 5526 5531 5535 5539 5542 5546 5550 5552 5554 5555 5556 5558 5558 5559 5559 5562 5559 5559 5560 5560 5561 5561 5561 5561
5525 5520 5512 5506 5502 5500 5502 5503 5503 5503 5503 5503 5504 5503 5505 5507 5509 5511 5513 5516 5520 5524 5528 5532 5535 5539 5542 5545 5547 5548 5550 5551 5552 5552 5552 5554 5552 5552 5552 5553 5554 5555 5556 5555 5555
5517 5512 5506 5501 5497 5497 5498 5499 5500 5501 5501 5501 5502 5503 5503 5505 5508 5511 5512 5515 5519 5522 5525 5529 5532 5535 5538 5540 5542 5544 5545 5545 5545 5545 5545 5546 5545 5544 5545 5547 5549 5550 5550 5550 5551
5510 5505 5501 5495 5492 5493 5494 5495 5497 5498 5498 5498 5499 5500 5501 5502 5505 5507 5510 5513 5516 5520 5523 5526 5529 5531 5534 5535 5537 5539 5538 5538 5538 5538 5537 5538 5539 5537 5541 5542 5544 5544 5545 5546 5547
5503 5498 5495 5490 5487 5489 5492 5493 5494 5495 5495 5495 5495 5496 5498 5500 5503 5506 5509 5511 5515 5518 5521 5525 5527 5528 5530 5530 5531 5533 5532 5532 5531 5530 5530 5532 5534 5535 5537 5538 5539 5539 5541 5543 5543